• Join FlightAware (Why Join?)
  • Login
  • US Flag 
08:16AM EDT


 

Airport Tracker/Info


-or-


 

Live Flight TrackerFlight Track Log ✈ RPA3436 ✈ 11-Jul-2013 ✈ KDCA - KALB

Flight Track Log - Related Links

Times and Time Zones

All times are in EDT time to prevent confusion due to time zone crossing. See the RPA3436 flight status page for this flight to view local times or setup timezone preferences in your user account.

Time Position Orientation Groundspeed Altitude Reporting Facility
EDT Latitude Longitude Course Direction KTS MPH feet Rate Location/Type
10:16AM 38.8667 -77.0500 61° Northeast 144 166 1,000  Level Potomac TRACON
10:17AM 38.9000 -77.0833 322° Northwest 188 216 2,600 2,100 Climbing Potomac TRACON
10:18AM 38.9616 -76.6987 67° East  Level FlightAware Approximate
10:18AM 38.9500 -77.1500 314° West 255 293 5,200  Level Potomac TRACON
10:19AM 39.0061 -76.5878 57° Northeast  Level FlightAware Approximate
10:20AM 39.0497 -76.4759 63° Northeast  Level FlightAware Approximate
10:20AM 39.0547 -77.0350 40° Northeast 242 278 11,600  Level Washington Center
10:21AM 39.0958 -76.3654 61° Northeast  Level FlightAware Approximate
10:21AM 39.0667 -76.9203 82° East 283 326 14,000  Level Washington Center
10:22AM 39.0825 -76.7922 81° East 316 364 15,900 1,920 Climbing Washington Center
10:23AM 39.0983 -76.6614 81° East 348 400 17,900 1,500 Climbing Washington Center
10:24AM 39.1161 -76.5144 81° East 370 426 19,000 900 Climbing Washington Center
10:25AM 39.1297 -76.3808 82° East 387 445 19,800 1,320 Climbing Washington Center
10:26AM 39.1472 -76.2392 81° East 394 453 21,700 1,500 Climbing Washington Center
10:27AM 39.1667 -76.0950 80° East 404 465 22,900 600 Climbing Washington Center
10:28AM 39.1858 -75.9450 81° East 410 472 23,000 540 Climbing Washington Center
10:29AM 39.2444 -75.8167 59° Northeast 410 472 24,100 1,140 Climbing Washington Center
10:30AM 39.3300 -75.7017 46° Northeast 417 480 25,400 1,260 Climbing Washington Center
10:31AM 39.4197 -75.5889 44° Northeast 428 493 26,600 780 Climbing Washington Center
10:32AM 39.5092 -75.4733 45° Northeast 440 506 27,000 180 Climbing Washington Center
10:33AM 39.5986 -75.3544 46° Northeast 445 512 27,000  Level Washington Center
10:35AM 39.7556 -75.1372 47° Northeast 445 512 27,000  Level New York Center
10:36AM 39.8389 -75.0208 47° Northeast 431 496 27,000  Level New York Center
10:37AM 39.9333 -74.8858 48° Northeast 444 511 27,000  Level New York Center
10:38AM 40.0169 -74.7633 48° Northeast 449 517 27,000  Level New York Center
10:39AM 40.1000 -74.6433 48° Northeast 449 517 27,000  Level New York Center
10:40AM 40.1875 -74.5203 47° Northeast 455 524 27,000  Level New York Center
10:41AM 40.2825 -74.4086 42° Northeast 449 517 27,000  Level New York Center
10:42AM 40.3794 -74.3047 39° Northeast 444 511 27,000  Level New York Center
10:43AM 40.4764 -74.2006 39° Northeast 444 511 27,000 -660 Level New York Center
10:45AM 40.6789 -73.9864 39° Northeast 448 516 25,100 -1,020 Descending Boston Center
10:46AM 40.7761 -73.8844 38° Northeast 448 516 24,000 -600 Descending Boston Center
10:47AM 40.8628 -73.7794 42° Northeast 438 504 24,000 -120 Level Boston Center
10:48AM 40.9431 -73.6767 44° Northeast 433 498 23,800 -480 Descending Boston Center
10:49AM 41.0586 -73.6017 26° Northeast 424 488 23,100 -660 Descending Boston Center
10:50AM 41.1614 -73.5236 30° Northeast 424 488 22,500 -900 Descending Boston Center
10:51AM 41.2539 -73.4561 29° Northeast 418 481 21,400 -1,560 Descending Boston Center
10:52AM 41.3583 -73.4053 20° North 410 472 19,400 -1,200 Descending Boston Center
10:53AM 41.4625 -73.4261 351° North 382 440 19,000 -900 Descending Boston Center
10:54AM 41.5747 -73.4392 355° North 376 433 17,600 -1,500 Descending Boston Center
10:55AM 41.6667 -73.4211 North 371 427 16,000 -1,800 Descending Boston Center
10:56AM 41.7753 -73.3922 11° North 360 414 14,100 -1,800 Descending Boston Center
10:57AM 41.8606 -73.4100 351° North 340 391 12,400 -1,560 Descending Boston Center
10:58AM 41.9561 -73.4533 341° North 326 375 11,000 -720 Descending Boston Center
10:59AM 42.0328 -73.4911 340° North 326 375 11,000  Level Boston Center
11:00AM 42.1306 -73.5233 346° North 326 375 11,000  Level Boston Center
11:01AM 42.2222 -73.5392 353° North 331 381 11,000 -600 Level Boston Center
11:02AM 42.2950 -73.5544 351° North 320 368 9,900 -1,500 Descending Boston Center
11:03AM 42.3719 -73.5669 353° North 286 329 8,000 -1,800 Descending Boston Center
11:04AM 42.4550 -73.5967 345° North 273 314 6,300 -1,620 Descending Boston Center
11:05AM 42.5319 -73.6150 350° North 262 302 4,800 -1,200 Descending Boston Center
11:06AM 42.5983 -73.6358 347° North 241 277 3,900 -900 Descending Boston Center
11:07AM 42.6586 -73.6456 353° North 202 232 2,900 -900 Descending Boston Center